RYR1HF EBCI-EGPH

Flight info

Callsign RYR1HF
Flight time 1h 15m
Altitude 36000
Route CIV UY50 LUMEN L610 KOPUL DCT SABER DCT SIVDA DCT BETAX L613 LEHOC DCT INPIP
Aircraft B38M/M-SDE1FGHILORVWXY/HB1

Departure

Time 2026-04-23 14:25
Airport Brussels South Charleroi Airport (EBCI)

Arrival

Time 2026-04-23 15:41
Airport Edinburgh Airport (EGPH)
Time Latitude Longitude Altitude Speed Heading
2026-04-23 14:08 50.46948 4.47344 623 ft 0 kts 335°
2026-04-23 14:16 50.46947 4.47345 623 ft 1 kts 335°
2026-04-23 14:17 50.46936 4.47353 623 ft 2 kts 335°
2026-04-23 14:17 50.46918 4.47365 623 ft 3 kts 335°
2026-04-23 14:17 50.46900 4.47378 623 ft 3 kts 335°
2026-04-23 14:17 50.46881 4.47392 623 ft 3 kts 335°
2026-04-23 14:18 50.46873 4.47397 623 ft 0 kts 335°
2026-04-23 14:19 50.46879 4.47392 623 ft 2 kts 323°
2026-04-23 14:19 50.46885 4.47361 623 ft 4 kts 263°
2026-04-23 14:19 50.46868 4.47337 623 ft 3 kts 186°
2026-04-23 14:19 50.46835 4.47333 623 ft 6 kts 176°
2026-04-23 14:20 50.46797 4.47351 623 ft 6 kts 167°
2026-04-23 14:20 50.46757 4.47317 623 ft 8 kts 241°
2026-04-23 14:20 50.46729 4.47221 623 ft 11 kts 245°
2026-04-23 14:20 50.46694 4.47100 623 ft 13 kts 245°
2026-04-23 14:21 50.46651 4.46953 623 ft 16 kts 245°
2026-04-23 14:21 50.46602 4.46785 623 ft 18 kts 245°
2026-04-23 14:21 50.46545 4.46589 623 ft 21 kts 245°
2026-04-23 14:21 50.46482 4.46372 623 ft 23 kts 245°
2026-04-23 14:22 50.46413 4.46136 623 ft 25 kts 245°
2026-04-23 14:22 50.46337 4.45875 623 ft 27 kts 245°
2026-04-23 14:22 50.46256 4.45595 623 ft 29 kts 245°
2026-04-23 14:22 50.46173 4.45311 623 ft 26 kts 245°
2026-04-23 14:23 50.46096 4.45047 623 ft 28 kts 245°
2026-04-23 14:23 50.46013 4.44760 623 ft 30 kts 245°
2026-04-23 14:23 50.45921 4.44461 623 ft 31 kts 236°
2026-04-23 14:23 50.45799 4.44205 623 ft 29 kts 232°
2026-04-23 14:24 50.45691 4.43991 623 ft 17 kts 217°
2026-04-23 14:24 50.45629 4.44049 623 ft 10 kts 78°
2026-04-23 14:24 50.45716 4.44356 623 ft 61 kts 65°
2026-04-23 14:24 50.45981 4.45267 623 ft 120 kts 65°
2026-04-23 14:25 50.46383 4.46650 881 ft 146 kts 65°
2026-04-23 14:25 50.46824 4.48118 1536 ft 152 kts 63°
2026-04-23 14:25 50.47297 4.49619 2179 ft 158 kts 63°
2026-04-23 14:25 50.47894 4.51105 2824 ft 164 kts 51°
2026-04-23 14:26 50.48681 4.52465 3485 ft 173 kts 47°
2026-04-23 14:26 50.49544 4.53859 4132 ft 183 kts 46°
2026-04-23 14:26 50.50469 4.55301 4770 ft 194 kts 44°
2026-04-23 14:26 50.51701 4.56308 5378 ft 210 kts 15°
2026-04-23 14:27 50.53222 4.56157 6014 ft 230 kts 345°
2026-04-23 14:27 50.54617 4.54790 6663 ft 250 kts 318°
2026-04-23 14:27 50.55612 4.52431 7343 ft 266 kts 300°
2026-04-23 14:27 50.56633 4.49953 7985 ft 279 kts 310°
2026-04-23 14:28 50.57958 4.47595 8639 ft 293 kts 316°
2026-04-23 14:28 50.59409 4.45220 9281 ft 306 kts 314°
2026-04-23 14:28 50.60796 4.42606 9921 ft 325 kts 310°
2026-04-23 14:28 50.62225 4.39681 10745 ft 345 kts 309°
2026-04-23 14:29 50.63695 4.36579 11608 ft 361 kts 308°
2026-04-23 14:29 50.65188 4.33365 12457 ft 375 kts 307°
2026-04-23 14:29 50.66737 4.29973 13316 ft 386 kts 307°
2026-04-23 14:29 50.68327 4.26478 14174 ft 395 kts 307°
2026-04-23 14:30 50.69935 4.22953 15024 ft 403 kts 306°
2026-04-23 14:30 50.71584 4.19313 15880 ft 408 kts 306°
2026-04-23 14:30 50.73243 4.15630 16736 ft 412 kts 306°
2026-04-23 14:30 50.74891 4.11969 17579 ft 414 kts 306°
2026-04-23 14:31 50.76572 4.08253 18431 ft 415 kts 306°
2026-04-23 14:31 50.78252 4.04527 19283 ft 416 kts 305°
2026-04-23 14:31 50.79900 4.00830 20125 ft 415 kts 305°
2026-04-23 14:31 50.81561 3.97087 20977 ft 413 kts 304°
2026-04-23 14:32 50.83217 3.93361 21830 ft 411 kts 304°
2026-04-23 14:32 50.84867 3.89654 22599 ft 423 kts 304°
2026-04-23 14:32 50.86609 3.85746 23242 ft 438 kts 304°
2026-04-23 14:32 50.88386 3.81766 23852 ft 450 kts 304°
2026-04-23 14:33 50.90202 3.77704 24453 ft 461 kts 304°
2026-04-23 14:33 50.92086 3.73494 25061 ft 469 kts 304°
2026-04-23 14:33 50.93983 3.69255 25662 ft 477 kts 304°
2026-04-23 14:33 50.95903 3.64964 26261 ft 482 kts 304°
2026-04-23 14:34 50.97864 3.60568 26867 ft 487 kts 304°
2026-04-23 14:34 50.99801 3.56195 27463 ft 490 kts 304°
2026-04-23 14:34 51.01762 3.51715 28067 ft 492 kts 304°
2026-04-23 14:34 51.03723 3.47200 28672 ft 494 kts 303°
2026-04-23 14:35 51.05636 3.42664 29274 ft 494 kts 301°
2026-04-23 14:35 51.07310 3.37976 29891 ft 494 kts 296°
2026-04-23 14:35 51.08853 3.33089 30516 ft 492 kts 294°
2026-04-23 14:35 51.10328 3.28148 31127 ft 492 kts 293°
2026-04-23 14:36 51.11761 3.23228 31727 ft 490 kts 293°
2026-04-23 14:36 51.13165 3.18330 32323 ft 488 kts 292°
2026-04-23 14:36 51.14547 3.13389 32923 ft 486 kts 292°
2026-04-23 14:36 51.15903 3.08465 33523 ft 484 kts 291°
2026-04-23 14:37 51.17242 3.03558 34122 ft 481 kts 291°
2026-04-23 14:37 51.18566 2.98676 34722 ft 477 kts 291°
2026-04-23 14:37 51.19874 2.93831 35321 ft 473 kts 291°
2026-04-23 14:37 51.21149 2.89097 35911 ft 469 kts 291°
2026-04-23 14:38 51.22431 2.84313 36359 ft 469 kts 291°
2026-04-23 14:38 51.23716 2.79482 36459 ft 477 kts 291°
2026-04-23 14:38 51.26345 2.69545 36471 ft 491 kts 291°
2026-04-23 14:39 51.29008 2.59442 36468 ft 495 kts 291°
2026-04-23 14:39 51.31672 2.49316 36468 ft 494 kts 291°
2026-04-23 14:40 51.34339 2.39170 36469 ft 492 kts 291°
2026-04-23 14:40 51.36982 2.29116 36469 ft 492 kts 291°
2026-04-23 14:41 51.39631 2.19047 36470 ft 492 kts 291°
2026-04-23 14:41 51.42236 2.08910 36471 ft 492 kts 290°
2026-04-23 14:42 51.44814 1.98719 36472 ft 492 kts 290°
2026-04-23 14:42 51.47355 1.88562 36468 ft 491 kts 290°
2026-04-23 14:43 51.49872 1.78416 36467 ft 490 kts 290°
2026-04-23 14:43 51.52388 1.68232 36473 ft 490 kts 290°
2026-04-23 14:44 51.54883 1.58085 36476 ft 489 kts 290°
2026-04-23 14:44 51.57370 1.47905 36479 ft 488 kts 290°
2026-04-23 14:45 51.59848 1.37812 36489 ft 487 kts 290°
2026-04-23 14:45 51.62376 1.27668 36491 ft 485 kts 290°
2026-04-23 14:46 51.64873 1.17626 36495 ft 484 kts 291°
2026-04-23 14:46 51.67348 1.07589 36496 ft 482 kts 291°
2026-04-23 14:47 51.70468 0.98055 36500 ft 481 kts 307°
2026-04-23 14:47 51.74888 0.90088 36500 ft 479 kts 315°
2026-04-23 14:48 51.79721 0.82683 36496 ft 477 kts 318°
2026-04-23 14:48 51.84656 0.75562 36494 ft 475 kts 319°
2026-04-23 14:49 51.89641 0.68515 36494 ft 474 kts 320°
2026-04-23 14:49 51.94649 0.61591 36494 ft 473 kts 320°
2026-04-23 14:50 51.99652 0.54686 36494 ft 472 kts 320°
2026-04-23 14:50 52.04507 0.47859 36496 ft 472 kts 319°
2026-04-23 14:51 52.09476 0.40822 36494 ft 472 kts 319°
2026-04-23 14:51 52.14398 0.33821 36494 ft 471 kts 319°
2026-04-23 14:52 52.19348 0.26755 36494 ft 471 kts 319°
2026-04-23 14:52 52.24244 0.19745 36495 ft 470 kts 319°
2026-04-23 14:53 52.29134 0.12646 36494 ft 470 kts 319°
2026-04-23 14:53 52.34039 0.05521 36492 ft 470 kts 319°
2026-04-23 14:54 52.38979 -0.01449 36496 ft 470 kts 320°
2026-04-23 14:54 52.43952 -0.08424 36501 ft 468 kts 321°
2026-04-23 14:55 52.48863 -0.15311 36502 ft 463 kts 321°
2026-04-23 14:55 52.53707 -0.22123 36500 ft 456 kts 320°
2026-04-23 14:56 52.58469 -0.28888 36499 ft 451 kts 320°
2026-04-23 14:56 52.63218 -0.35677 36496 ft 448 kts 320°
2026-04-23 14:57 52.67900 -0.42394 36496 ft 447 kts 320°
2026-04-23 14:57 52.72571 -0.49113 36498 ft 446 kts 320°
2026-04-23 14:58 52.77249 -0.55853 36506 ft 446 kts 320°
2026-04-23 14:58 52.81912 -0.62578 36515 ft 446 kts 320°
2026-04-23 14:59 52.86571 -0.69311 36519 ft 446 kts 320°
2026-04-23 14:59 52.91227 -0.76058 36514 ft 446 kts 320°
2026-04-23 15:00 52.95878 -0.82808 36514 ft 446 kts 320°
2026-04-23 15:00 53.00909 -0.88892 36528 ft 445 kts 328°
2026-04-23 15:01 53.06165 -0.94288 36525 ft 445 kts 330°
2026-04-23 15:01 53.11492 -0.99507 36519 ft 445 kts 330°
2026-04-23 15:02 53.16872 -1.04629 36508 ft 445 kts 331°
2026-04-23 15:02 53.22295 -1.09717 36486 ft 446 kts 331°
2026-04-23 15:03 53.27690 -1.14776 36456 ft 446 kts 331°
2026-04-23 15:03 53.33095 -1.19821 36423 ft 446 kts 332°
2026-04-23 15:04 53.38498 -1.24928 36397 ft 447 kts 331°
2026-04-23 15:04 53.43013 -1.29236 36386 ft 447 kts 331°
2026-04-23 15:05 53.48459 -1.34283 36385 ft 447 kts 332°
2026-04-23 15:05 53.53896 -1.39371 36396 ft 447 kts 331°
2026-04-23 15:06 53.59306 -1.44461 36422 ft 448 kts 331°
2026-04-23 15:06 53.64750 -1.49600 36453 ft 448 kts 331°
2026-04-23 15:07 53.70108 -1.54994 36500 ft 449 kts 326°
2026-04-23 15:07 53.75067 -1.61351 36539 ft 450 kts 321°
2026-04-23 15:08 53.79857 -1.68180 36525 ft 451 kts 320°
2026-04-23 15:09 53.86936 -1.78666 36521 ft 451 kts 319°
2026-04-23 15:09 53.91611 -1.85762 36523 ft 451 kts 318°
2026-04-23 15:10 53.96245 -1.92905 36522 ft 451 kts 318°
2026-04-23 15:10 54.01169 -1.99541 36524 ft 450 kts 326°
2026-04-23 15:11 54.06417 -2.05285 36522 ft 450 kts 329°
2026-04-23 15:11 54.11769 -2.10763 36520 ft 450 kts 329°
2026-04-23 15:12 54.17165 -2.16188 36519 ft 449 kts 330°
2026-04-23 15:12 54.22531 -2.21598 36512 ft 449 kts 329°
2026-04-23 15:13 54.27889 -2.27124 36510 ft 449 kts 329°
2026-04-23 15:13 54.33238 -2.32694 36515 ft 449 kts 329°
2026-04-23 15:14 54.38586 -2.38279 36511 ft 449 kts 329°
2026-04-23 15:14 54.43907 -2.43841 36511 ft 450 kts 329°
2026-04-23 15:15 54.49262 -2.49444 36511 ft 450 kts 329°
2026-04-23 15:15 54.54513 -2.54943 36158 ft 434 kts 329°
2026-04-23 15:15 54.57044 -2.57599 35644 ft 423 kts 329°
2026-04-23 15:16 54.59537 -2.60218 35094 ft 411 kts 329°
2026-04-23 15:16 54.61950 -2.62760 34540 ft 400 kts 329°
2026-04-23 15:16 54.64272 -2.65210 33992 ft 390 kts 329°
2026-04-23 15:16 54.66569 -2.67640 33438 ft 382 kts 329°
2026-04-23 15:17 54.68818 -2.70023 32885 ft 375 kts 329°
2026-04-23 15:17 54.71037 -2.72346 32333 ft 370 kts 329°
2026-04-23 15:17 54.73203 -2.74597 31787 ft 365 kts 329°
2026-04-23 15:17 54.75377 -2.76854 31234 ft 361 kts 329°
2026-04-23 15:18 54.77523 -2.79088 30681 ft 357 kts 329°
2026-04-23 15:18 54.79644 -2.81304 30129 ft 353 kts 329°
2026-04-23 15:18 54.81716 -2.83477 29583 ft 350 kts 329°
2026-04-23 15:18 54.83812 -2.85628 29030 ft 347 kts 332°
2026-04-23 15:19 54.85948 -2.87545 28480 ft 344 kts 334°
2026-04-23 15:19 54.88086 -2.89310 27935 ft 341 kts 335°
2026-04-23 15:19 54.90254 -2.91027 27380 ft 339 kts 336°
2026-04-23 15:19 54.92407 -2.92699 26828 ft 336 kts 336°
2026-04-23 15:20 54.94516 -2.94319 26283 ft 334 kts 336°
2026-04-23 15:20 54.96650 -2.95948 25729 ft 332 kts 336°
2026-04-23 15:20 54.98742 -2.97538 25182 ft 330 kts 336°
2026-04-23 15:20 55.00842 -2.99129 24631 ft 327 kts 336°
2026-04-23 15:21 55.02936 -3.00711 24078 ft 325 kts 336°
2026-04-23 15:21 55.04989 -3.02235 23533 ft 323 kts 337°
2026-04-23 15:21 55.07062 -3.03743 22982 ft 321 kts 337°
2026-04-23 15:21 55.09130 -3.05234 22429 ft 319 kts 337°
2026-04-23 15:22 55.11188 -3.06715 21875 ft 317 kts 337°
2026-04-23 15:22 55.13196 -3.08160 21331 ft 315 kts 337°
2026-04-23 15:22 55.15214 -3.09616 20780 ft 313 kts 337°
2026-04-23 15:22 55.17225 -3.11068 20228 ft 310 kts 337°
2026-04-23 15:23 55.19221 -3.12513 19675 ft 308 kts 337°
2026-04-23 15:23 55.21197 -3.13948 19124 ft 306 kts 337°
2026-04-23 15:23 55.23142 -3.15364 18578 ft 304 kts 337°
2026-04-23 15:23 55.25096 -3.16790 18027 ft 302 kts 338°
2026-04-23 15:24 55.27082 -3.17975 17484 ft 299 kts 348°
2026-04-23 15:24 55.29113 -3.18355 16978 ft 296 kts 358°
2026-04-23 15:24 55.31174 -3.18350 16463 ft 294 kts
2026-04-23 15:24 55.33211 -3.18192 15929 ft 293 kts
2026-04-23 15:25 55.35238 -3.17977 15381 ft 291 kts
2026-04-23 15:25 55.37273 -3.17734 14824 ft 290 kts
2026-04-23 15:25 55.39266 -3.17490 14280 ft 289 kts
2026-04-23 15:25 55.41255 -3.17249 13733 ft 287 kts
2026-04-23 15:26 55.43260 -3.16999 13178 ft 285 kts
2026-04-23 15:26 55.45216 -3.16749 12632 ft 284 kts
2026-04-23 15:26 55.47193 -3.16520 12077 ft 282 kts
2026-04-23 15:26 55.48366 -3.16388 11747 ft 281 kts
2026-04-23 15:27 55.49876 -3.16221 11319 ft 279 kts
2026-04-23 15:27 55.51815 -3.16011 10767 ft 278 kts
2026-04-23 15:27 55.53744 -3.15800 10215 ft 276 kts
2026-04-23 15:27 55.55659 -3.15565 9663 ft 275 kts
2026-04-23 15:28 55.57540 -3.15325 9119 ft 273 kts
2026-04-23 15:28 55.59447 -3.15082 8566 ft 272 kts
2026-04-23 15:28 55.61313 -3.14853 8022 ft 271 kts
2026-04-23 15:28 55.63176 -3.14654 7771 ft 259 kts
2026-04-23 15:29 55.64971 -3.14483 7623 ft 257 kts
2026-04-23 15:29 55.66761 -3.14320 7544 ft 258 kts
2026-04-23 15:29 55.68534 -3.14147 7527 ft 259 kts
2026-04-23 15:29 55.70342 -3.13945 7524 ft 260 kts
2026-04-23 15:30 55.72156 -3.14034 7495 ft 261 kts 347°
2026-04-23 15:30 55.73775 -3.15368 7381 ft 261 kts 321°
2026-04-23 15:30 55.74913 -3.17841 7262 ft 257 kts 295°
2026-04-23 15:30 55.75495 -3.20803 7162 ft 255 kts 282°
2026-04-23 15:31 55.75864 -3.23897 7043 ft 254 kts 278°
2026-04-23 15:31 55.76156 -3.26957 6918 ft 252 kts 277°
2026-04-23 15:31 55.76427 -3.30029 6792 ft 251 kts 276°
2026-04-23 15:31 55.76693 -3.33086 6666 ft 248 kts 276°
2026-04-23 15:32 55.76950 -3.36048 6537 ft 244 kts 276°
2026-04-23 15:32 55.77208 -3.39018 6409 ft 241 kts 276°
2026-04-23 15:32 55.77463 -3.41962 6282 ft 240 kts 276°
2026-04-23 15:32 55.77719 -3.44894 6159 ft 239 kts 276°
2026-04-23 15:33 55.77971 -3.47782 6017 ft 239 kts 276°
2026-04-23 15:33 55.78219 -3.50638 5797 ft 240 kts 276°
2026-04-23 15:33 55.78477 -3.53647 5565 ft 238 kts 276°
2026-04-23 15:33 55.78720 -3.56520 5341 ft 235 kts 276°
2026-04-23 15:34 55.78957 -3.59356 5112 ft 228 kts 276°
2026-04-23 15:34 55.79186 -3.62123 4875 ft 222 kts 276°
2026-04-23 15:34 55.79409 -3.64787 4646 ft 218 kts 278°
2026-04-23 15:34 55.80022 -3.67230 4401 ft 219 kts 307°
2026-04-23 15:35 55.81243 -3.68810 4203 ft 217 kts 334°
2026-04-23 15:35 55.82632 -3.69677 4043 ft 209 kts 343°
2026-04-23 15:35 55.84030 -3.70298 3808 ft 204 kts 351°
2026-04-23 15:35 55.85398 -3.69913 3548 ft 198 kts 25°
2026-04-23 15:36 55.86387 -3.68300 3265 ft 196 kts 58°
2026-04-23 15:36 55.86770 -3.66025 3023 ft 192 kts 82°
2026-04-23 15:36 55.86943 -3.63681 2824 ft 189 kts 82°
2026-04-23 15:36 55.87228 -3.61405 2621 ft 186 kts 75°
2026-04-23 15:37 55.87668 -3.59289 2416 ft 179 kts 67°
2026-04-23 15:37 55.88216 -3.57342 2207 ft 172 kts 62°
2026-04-23 15:37 55.88607 -3.56137 2083 ft 165 kts 60°
2026-04-23 15:37 55.89375 -3.53893 1890 ft 153 kts 59°
2026-04-23 15:38 55.89912 -3.52323 1763 ft 148 kts 58°
2026-04-23 15:38 55.90429 -3.50802 1612 ft 138 kts 58°
2026-04-23 15:38 55.90917 -3.49366 1451 ft 133 kts 58°
2026-04-23 15:38 55.91389 -3.47974 1297 ft 132 kts 58°
2026-04-23 15:39 55.91861 -3.46577 1144 ft 131 kts 58°
2026-04-23 15:39 55.92330 -3.45189 992 ft 130 kts 58°
2026-04-23 15:39 55.92797 -3.43802 823 ft 130 kts 58°
2026-04-23 15:39 55.93259 -3.42433 649 ft 130 kts 59°
2026-04-23 15:40 55.93723 -3.41054 473 ft 129 kts 59°
2026-04-23 15:40 55.94185 -3.39681 301 ft 128 kts 59°
2026-04-23 15:40 55.94634 -3.38347 152 ft 123 kts 59°
2026-04-23 15:40 55.94976 -3.37323 144 ft 64 kts 59°
2026-04-23 15:41 55.95144 -3.36825 144 ft 38 kts 59°
2026-04-23 15:41 55.95246 -3.36525 144 ft 20 kts 59°
2026-04-23 15:41 55.95240 -3.36397 144 ft 6 kts 147°
2026-04-23 15:41 55.95213 -3.36369 144 ft 3 kts 150°
2026-04-23 15:42 55.95196 -3.36351 144 ft 4 kts 149°
2026-04-23 15:42 55.95161 -3.36315 144 ft 7 kts 156°
2026-04-23 15:42 55.95109 -3.36361 144 ft 11 kts 237°
2026-04-23 15:42 55.95054 -3.36385 144 ft 10 kts 160°
2026-04-23 15:43 55.94996 -3.36445 144 ft 11 kts 239°
2026-04-23 15:43 55.94954 -3.36569 144 ft 8 kts 239°
2026-04-23 15:43 55.94925 -3.36593 144 ft 4 kts 147°
2026-04-23 15:43 55.94892 -3.36556 144 ft 6 kts 148°
2026-04-23 15:44 55.94880 -3.36543 144 ft 0 kts 149°